www.pogodaiklimat.ru

Погода и климат >> Архив погоды >> Украина >> Гуляйполе


ПОГОДА в Гуляйполе

  • Прогноз погоды в Гуляйполе
  • Монитор погоды в Гуляйполе

АРХИВ ПОГОДЫ в Гуляйполе

Время (UTC), дата Ветер
(напр.,м/с)
 
Видим.   Явления Облачность Т
(С)
Тd
(С)
f
(%)
Тe
(С)
Тes
(С)
Комфортность P
(гПа)
Po
(гПа)
Тmin
(С)
Tmax
(С)
R
(мм)
R24
(мм)
S
(см)
12 16.09 ЮЗ 6 20 км ясно +24.6 +2.0 23 +24 +26 комфорт 1012.4 998.9
15 16.09 ЮЗ 4 20 км ясно +23.7 +5.0 30 +24 +24 комфорт 1010.9 995.3
18 16.09 ЮЗ 3 10 км ясно +19.2 +5.9 42 +20 +20 1010.9 995.1 +25.8
21 16.09 ЮЗ 5 10 км ясно +17.6 +8.5 55 +17 +17 1010.7 994.8
00 17.09 ЮЗ 2 10 км ясно +16.3 +11.1 71 +16 +16 1009.8 996.0
03 17.09 Ю 4 50 км ясно +13.3 +11.2 87 +12 +12 1009.6 993.5
06 17.09 Ю 3 20 км 8/0
[Ac trans]
+17.1 +13.4 79 +17 +19 1009.6 993.7 +13.0
09 17.09 З 3 20 км 10/0
[Ac As]
+20.9 +10.0 50 +23 +25 комфорт 1009.4 993.7
12 17.09 СЗ 3 20 км 10/3 600 м
[Cb cap Ac As]
+17.0 +11.5 70 +17 +18 1009.7 995.9
15 17.09 З 3 20 км 8/0
[Ac trans]
+17.2 +11.3 68 +17 +17 1008.3 992.4
18 17.09 ЮЗ 2 10 км 8/0
[Ac trans]
+12.7 +10.6 87 +12 +12 1010.0 993.8 +21.7
21 17.09 штиль 0 10 км 8/0
[Ac trans]
+9.4 +7.5 88 +9 +9 1010.0 993.6
00 18.09 штиль 0 10 км 9/6 600 м
[Cb cap Ac trans]
+12.2 +10.5 89 +12 +12 1008.9 994.9
03 18.09 Ю 2 50 км 8/6 600 м
[Cb cap Ac trans]
+13.1 +10.4 84 +12 +12 1007.8 991.7
06 18.09 Ю 4 20 км {ливн. осадки} 8/3 600 м
[Cb cap Ac und]
+14.5 +13.4 93 +13 +14 1006.5 990.5 +9.0 0.9
09 18.09 Ю 10 4000 м гроза, ливневой дождь 10/8 600 м
[Cb cap Ac und]
+15.1 +14.0 93 +13 +13 1006.0 990.0
12 18.09 З 3 20 км {гроза, ливн. осадки} 9/8 600 м
[Cb cap Ci fib]
+17.5 +9.5 59 +18 +19 1006.8 993.0
15 18.09 З 5 20 км 9/9 1000 м
[Cu hum]
+15.8 +6.4 54 +15 +15 1007.3 991.3
18 18.09 ЮЗ 3 10 км ясно +10.8 +3.3 60 +9 +9 1012.5 996.2 +18.1 5
21 18.09 ЮЗ 3 10 км ясно +9.7 +2.7 62 +8 +8 1014.4 998.0
00 19.09 Ю 3 10 км ясно +7.2 +2.9 74 +4 +4 1016.4 1002.0
03 19.09 ЮЗ 3 50 км ясно +7.2 +3.9 80 +4 +4 1017.8 1001.2
06 19.09 З 3 20 км ясно +10.9 +6.4 74 +9 +12 1019.5 1003.1 +6.4
09 19.09 ЮЗ 4 20 км 5/5 1000 м
[Cu med, cong]
+15.9 +5.2 49 +15 +18 1019.6 1003.5
12 19.09 ЮЗ 5 20 км 4/4 1000 м
[Cu med, cong]
+16.9 +3.5 41 +16 +18 1019.0 1005.0
15 19.09 З 2 20 км 3/3 1000 м
[Cu med, cong]
+16.5 +3.8 43 +17 +17 1018.6 1002.5
18 19.09 ЮЗ 5 10 км ясно +8.3 +1.1 60 +5 +5 1019.8 1003.2 +18.1
21 19.09 ЮЗ 2 10 км ясно +4.3 +1.5 82 +2 +2 1020.0 1003.2
00 20.09 Ю 1 10 км 4/0
[Ac trans]
+2.3 +0.7 89 +1 +1 1019.8 1005.1
03 20.09 штиль 0 4000 м дымка 5/0
[Ci]
+1.2 +0.4 94 -0 -0 1019.2 1002.2
06 20.09 штиль 0 20 км 4/0
[Ac trans Ci]
+10.6 +4.9 68 +10 +14 1018.3 1001.9 +0.7
09 20.09 З 2 20 км 9/3 1000 м
[Cu med, cong Ac trans Ci]
+15.5 +3.2 44 +16 +19 1016.8 1000.7
12 20.09 ЮЗ 3 20 км 10/6 1000 м
[Cu med, cong As op]
+15.6 +1.5 38 +15 +16 1015.7 1001.7
15 20.09 З 5 20 км 9/9 600 м
[Cb cap]
+14.0 +2.8 47 +12 +12 1015.6 999.4
18 20.09 ЮЗ 3 10 км {ливн. осадки} 8/8 600 м
[Cb cap]
+7.4 +3.9 78 +5 +5 1016.5 999.9 +16.5 0.3
21 20.09 З 2 10 км ясно +6.7 +3.9 82 +4 +4 1016.8 1000.2
00 21.09 З 1 10 км ясно +4.3 +1.8 84 +3 +3 1017.0 1002.4
03 21.09 ЮЗ 2 4000 м дымка ясно +2.7 +1.7 93 -1 -1 1017.7 1000.8
06 21.09 СЗ 3 20 км 3/0
[Ac trans]
+8.4 +5.5 82 +6 +8 1018.5 1001.9 +2.4
12 21.09 СЗ 5 20 км 8/8 600 м
[Cb cap]
+14.4 +1.5 42 +13 +14 1018.6 1004.5
18 21.09 З 2 10 км 6/0
[Ac trans]
+7.7 +2.9 72 +6 +6 1021.1 1004.5 +15.0
00 22.09 Ю 3 10 км 8/0
[Ac trans]
+5.5 +2.0 78 +2 +2 1019.8 1005.2
06 22.09 Ю 10 20 км 10/0
[Ac und]
+10.2 +2.5 59 +6 +6 1002.3 986.1 +2.0
12 22.09 ЮЗ 8 20 км 10/10 600 м
[Cb cap]
+16.1 +7.0 55 +15 +15 1014.8 1000.9
18 22.09 ЮЗ 5 10 км 5/0
[Ac trans]
+15.8 +7.4 57 +15 +15 1015.1 999.0 +17.6
00 23.09 Ю 3 10 км ясно +10.0 +6.6 79 +8 +8 1014.6 1000.4
06 23.09 СЗ 2 20 км ясно +13.4 +8.6 73 +13 +16 1015.7 999.5 +8.0

 

Местоположение метеостанции Гуляйполе (Запорожская область, Украина): широта 47.67 долгота 36.25 высота над уровнем моря 135 м.

В архиве по умолчанию представлена погода в Гуляйполе за последнюю неделю. Архивные данные за месяц целиком и за предыдущие месяцы, начиная с января 2011 года, Вы можете получить, выбрав интересующий диапазон дат из раскрывающегося списка и нажав кнопку "Ввод!".


*Определитесь, кто Вы:
робот инопланетянин человек

Внимание! Время в таблицах - всемирное. Для получения местного времени необходимо прибавить поправку, которая равна 2 ч.

Смотрите также архив погоды в соседних городах и на ближайших метеорологических станциях:

Погода в Кирилловке (Запорожская область, Украина) (38 км)
Погода в Чаплино (Днепропетровская область, Украина) (51 км)
Погода в Пришибе (Запорожская область, Украина) (82 км)
Погода в Волновахе (Донецкая область, Украина) (83 км)
Погода в Запорожье (Запорожская область, Украина) (93 км)
Погода в Синельниково (Днепропетровская область, Украина) (99 км)
Погода в Павлограде (Днепропетровская область, Украина) (101 км)
Погода в Александрополе (Днепропетровская область, Украина) (106 км)
Погода в Бердянске (Запорожская область, Украина) (110 км)
Погода в Ботиево (Запорожская область, Украина) (114 км)

Пояснения к столбцам:

Ветер - указаны скорость ветра в м/с - средняя за 10 мин, порывы в срок и между сроками (в фигурных скобках) и направление, откуда дует ветер: С - северный, СВ - северо-восточный, В - восточный, ЮВ - юго-восточный, Ю - южный, ЮЗ - юго-западный, З - западный, СЗ - северо-западный.
Видимость - горизонтальная дальность видимости в метрах или километрах. При видимости от 1 до 10 км при отсутствии осадков обычно наблюдается дымка, при ухудшении видимости до 1 км и менее - туман. В сухую погоду видимость может ухудшаться дымом, пылью или мглою.
Явления - указаны атмосферные явления, наблюдавшиеся в срок или в последний час перед сроком; фигурными скобками обозначены явления, наблюдавшиеся между сроками (за 1-3 часа до срока); квадратными скобками обозначены град или гололедные отложения с указанием их диаметра в мм.
Облачность - указаны через наклонную черту общая и нижняя облачность в баллах и высота нижней границы облаков в метрах; квадратными скобками обозначены формы облаков: Ci - перистые, Cs - перисто-слоистые, Cc - перисто-кучевые, Ac - высококучевые, As - высокослоистые, Sc - слоисто-кучевые, Ns - слоисто-дождевые, Cu - кучевые, Cb - кучево-дождевые. Подробнее классификацию облаков см. в Атласе облаков (PDF).
T - Температура воздуха - температура, измеренная на высоте 2 м над землей.
Td - Температура точки росы - температура, при понижении до которой содержащийся в воздухе водяной пар достигнет насыщения.
f - Относительная влажность воздуха - влажноcть воздуха, измеренная на высоте 2 м над землей.
Te - Эффективная температура - температура, которую ощущает одетый по сезону человек в тени. Характеристика душности погоды. При расчете учитывается влияние влажности воздуха и скорости ветра на теплоощущения человека.
Tes - Эффективная температура на солнце - температура, которую ощущает человек, с поправкой на солнечный нагрев. Характеристика знойности погоды. Зависит от высоты солнца над горизонтом, облачности и скорости ветра. Ночью, в пасмурную погоду, а также при ветре 12 м/с и более поправка равна нулю.
P - Атмосферное давление - приведенное к уровню моря атмосферное давление.
Po - Атмосферное давление - измеренное на уровне метеостанции атмосферное давление.
Tmin - Минимальная температура - минимум температуры воздуха на высоте 2 м над землей.
Tmax - Максимальная температура - максимум температуры воздуха на высоте 2 м над землей.
R - Количество осадков - Количество выпавших осадков за период времени, мм. При наведении курсора мыши на число - период времени, за который выпало указанное количество осадков.
R24 - Количество осадков - Количество выпавших осадков за 24 часа, мм.
S - Снежный покров - Высота снежного покрова, см. При наведении курсора мыши на число - состояние снежного покрова и степень покрытия местности в баллах.